TimeCST,TemperatureF,Dew PointF,Humidity,Sea Level PressureIn,VisibilityMPH,Wind Direction,Wind SpeedMPH,Gust SpeedMPH,PrecipitationIn,Events,Conditions,WindDirDegrees,DateUTC
12:15 AM,44.6,33.8,66,29.32,10.0,South,12.7,-,N/A,,Partly Cloudy,180,2012-12-03 06:15:00
12:35 AM,44.6,33.8,66,29.32,10.0,South,11.5,-,N/A,,Clear,180,2012-12-03 06:35:00
12:55 AM,44.6,33.8,66,29.32,10.0,South,10.4,-,N/A,,Scattered Clouds,180,2012-12-03 06:55:00
1:15 AM,44.6,33.8,66,29.31,10.0,South,11.5,-,N/A,,Overcast,190,2012-12-03 07:15:00
1:35 AM,44.6,33.8,66,29.33,10.0,SW,9.2,-,N/A,,Overcast,220,2012-12-03 07:35:00
1:55 AM,42.8,33.8,70,29.35,10.0,West,5.8,-,N/A,,Overcast,270,2012-12-03 07:55:00
2:15 AM,41.0,35.6,81,29.36,10.0,West,5.8,-,N/A,,Overcast,260,2012-12-03 08:15:00
2:35 AM,44.6,32.0,61,29.38,10.0,West,16.1,21.9,N/A,,Overcast,270,2012-12-03 08:35:00
2:55 AM,46.4,33.8,62,29.40,10.0,WNW,23.0,29.9,N/A,,Overcast,300,2012-12-03 08:55:00
3:15 AM,48.2,35.6,62,29.43,10.0,NW,25.3,33.4,N/A,,Overcast,320,2012-12-03 09:15:00
3:35 AM,50.0,39.2,66,29.44,10.0,NW,31.1,42.6,N/A,,Overcast,320,2012-12-03 09:35:00
3:55 AM,48.2,41.0,76,29.46,10.0,NW,27.6,38.0,N/A,,Scattered Clouds,320,2012-12-03 09:55:00
4:15 AM,48.2,42.8,82,29.48,10.0,NW,23.0,36.8,N/A,,Mostly Cloudy,310,2012-12-03 10:15:00
4:35 AM,46.4,44.6,93,29.49,10.0,WNW,24.2,34.5,N/A,Rain,Light Rain,300,2012-12-03 10:35:00
4:55 AM,44.6,44.6,100,29.50,7.0,WNW,23.0,35.7,0.01,Rain,Light Rain,300,2012-12-03 10:55:00
5:15 AM,44.6,44.6,100,29.52,10.0,WNW,24.2,33.4,N/A,,Overcast,300,2012-12-03 11:15:00
5:35 AM,44.6,44.6,100,29.54,10.0,WNW,17.3,25.3,N/A,,Overcast,290,2012-12-03 11:35:00
5:55 AM,44.6,41.0,87,29.54,10.0,WNW,25.3,29.9,N/A,,Overcast,290,2012-12-03 11:55:00
6:15 AM,44.6,39.2,81,29.54,10.0,WNW,21.9,27.6,N/A,,Overcast,300,2012-12-03 12:15:00
6:35 AM,44.6,35.6,71,29.57,10.0,WNW,18.4,29.9,N/A,,Overcast,290,2012-12-03 12:35:00
6:55 AM,42.8,35.6,76,29.58,10.0,WNW,19.6,25.3,N/A,,Overcast,290,2012-12-03 12:55:00
7:15 AM,42.8,33.8,70,29.60,10.0,WNW,23.0,26.5,N/A,,Overcast,290,2012-12-03 13:15:00
7:35 AM,42.8,32.0,66,29.61,10.0,WNW,17.3,21.9,N/A,,Mostly Cloudy,290,2012-12-03 13:35:00
7:55 AM,41.0,32.0,70,29.62,10.0,WNW,16.1,20.7,N/A,,Partly Cloudy,290,2012-12-03 13:55:00
8:15 AM,39.2,32.0,75,29.63,10.0,West,15.0,-,N/A,,Clear,280,2012-12-03 14:15:00
8:35 AM,39.2,32.0,75,29.64,10.0,West,16.1,-,N/A,,Clear,280,2012-12-03 14:35:00
8:55 AM,41.0,32.0,70,29.64,10.0,West,20.7,27.6,N/A,,Clear,270,2012-12-03 14:55:00
9:15 AM,41.0,32.0,70,29.65,10.0,West,20.7,26.5,N/A,,Clear,270,2012-12-03 15:15:00
9:35 AM,41.0,32.0,70,29.66,10.0,West,21.9,27.6,N/A,,Clear,270,2012-12-03 15:35:00
9:55 AM,41.0,30.2,65,29.66,10.0,West,26.5,36.8,N/A,,Clear,280,2012-12-03 15:55:00
10:15 AM,42.8,28.4,57,29.67,10.0,West,31.1,38.0,N/A,,Clear,280,2012-12-03 16:15:00
10:35 AM,44.6,28.4,53,29.68,10.0,West,28.8,36.8,N/A,,Clear,280,2012-12-03 16:35:00
10:55 AM,44.6,26.6,49,29.70,10.0,WNW,26.5,36.8,N/A,,Clear,290,2012-12-03 16:55:00
11:15 AM,46.4,26.6,46,29.70,10.0,West,29.9,43.7,N/A,,Clear,280,2012-12-03 17:15:00
11:35 AM,46.4,26.6,46,29.69,10.0,WNW,29.9,39.1,N/A,,Clear,290,2012-12-03 17:35:00
11:55 AM,46.4,26.6,46,29.70,10.0,WNW,34.5,44.9,N/A,,Clear,290,2012-12-03 17:55:00
12:15 PM,48.2,26.6,43,29.71,10.0,WNW,31.1,41.4,N/A,,Clear,290,2012-12-03 18:15:00
12:35 PM,48.2,26.6,43,29.72,10.0,West,25.3,34.5,N/A,,Clear,280,2012-12-03 18:35:00
12:55 PM,48.2,24.8,40,29.72,10.0,WNW,28.8,38.0,N/A,,Clear,290,2012-12-03 18:55:00
1:15 PM,48.2,24.8,40,29.72,10.0,WNW,31.1,39.1,N/A,,Clear,290,2012-12-03 19:15:00
1:35 PM,48.2,24.8,40,29.73,10.0,WNW,27.6,39.1,N/A,,Clear,290,2012-12-03 19:35:00
1:55 PM,50.0,24.8,37,29.73,10.0,West,27.6,38.0,N/A,,Clear,280,2012-12-03 19:55:00
2:15 PM,50.0,24.8,37,29.74,10.0,WNW,25.3,33.4,N/A,,Clear,290,2012-12-03 20:15:00
2:35 PM,50.0,24.8,37,29.74,10.0,WNW,33.4,43.7,N/A,,Partly Cloudy,290,2012-12-03 20:35:00
2:55 PM,50.0,24.8,37,29.75,10.0,WNW,28.8,39.1,N/A,,Scattered Clouds,300,2012-12-03 20:55:00
3:15 PM,48.2,24.8,40,29.75,10.0,WNW,32.2,43.7,N/A,,Partly Cloudy,290,2012-12-03 21:15:00
3:35 PM,48.2,24.8,40,29.76,10.0,WNW,27.6,41.4,N/A,,Clear,290,2012-12-03 21:35:00
3:55 PM,48.2,26.6,43,29.77,10.0,WNW,26.5,41.4,N/A,,Partly Cloudy,290,2012-12-03 21:55:00
4:15 PM,46.4,26.6,46,29.79,10.0,NW,12.7,24.2,N/A,,Mostly Cloudy,310,2012-12-03 22:15:00
4:35 PM,44.6,26.6,49,29.80,10.0,WNW,17.3,23.0,N/A,,Partly Cloudy,300,2012-12-03 22:35:00
4:55 PM,42.8,26.6,53,29.80,10.0,WNW,12.7,-,N/A,,Partly Cloudy,300,2012-12-03 22:55:00
5:15 PM,41.0,26.6,57,29.81,10.0,WNW,11.5,-,N/A,,Clear,300,2012-12-03 23:15:00
5:35 PM,39.2,26.6,61,29.82,10.0,WNW,10.4,-,N/A,,Clear,290,2012-12-03 23:35:00
5:55 PM,37.4,26.6,65,29.83,10.0,NW,8.1,-,N/A,,Clear,320,2012-12-03 23:55:00
6:15 PM,33.8,26.6,75,29.85,10.0,NNW,5.8,-,N/A,,Clear,340,2012-12-04 00:15:00
6:35 PM,35.6,28.4,75,29.86,10.0,NW,12.7,-,N/A,,Clear,320,2012-12-04 00:35:00
6:55 PM,35.6,28.4,75,29.87,10.0,NW,16.1,-,N/A,,Partly Cloudy,320,2012-12-04 00:55:00
7:15 PM,33.8,26.6,75,29.88,10.0,NW,6.9,-,N/A,,Clear,310,2012-12-04 01:15:00
7:35 PM,30.2,26.6,86,29.89,10.0,WNW,8.1,-,N/A,,Clear,300,2012-12-04 01:35:00
7:55 PM,30.2,26.6,86,29.90,10.0,WNW,6.9,-,N/A,,Partly Cloudy,290,2012-12-04 01:55:00
8:15 PM,30.2,26.6,86,29.91,10.0,WNW,11.5,-,N/A,,Clear,290,2012-12-04 02:15:00
8:35 PM,32.0,26.6,80,29.92,10.0,NW,12.7,-,N/A,,Clear,320,2012-12-04 02:35:00
8:55 PM,32.0,24.8,75,29.93,10.0,NW,13.8,-,N/A,,Clear,320,2012-12-04 02:55:00
9:15 PM,32.0,24.8,75,29.93,10.0,WNW,12.7,-,N/A,,Clear,290,2012-12-04 03:15:00
9:35 PM,32.0,24.8,75,29.95,10.0,NW,11.5,17.3,N/A,,Clear,310,2012-12-04 03:35:00
9:55 PM,30.2,24.8,80,29.95,10.0,NW,12.7,-,N/A,,Clear,320,2012-12-04 03:55:00
10:15 PM,30.2,24.8,80,29.96,10.0,NW,10.4,-,N/A,,Clear,320,2012-12-04 04:15:00
10:35 PM,28.4,24.8,86,29.96,10.0,NW,12.7,-,N/A,,Clear,320,2012-12-04 04:35:00
10:55 PM,28.4,23.0,80,29.96,10.0,NW,10.4,-,N/A,,Clear,310,2012-12-04 04:55:00
11:15 PM,26.6,23.0,86,29.98,10.0,NNW,10.4,-,N/A,,Clear,340,2012-12-04 05:15:00
11:35 PM,26.6,23.0,86,29.99,10.0,North,5.8,-,N/A,,Clear,10,2012-12-04 05:35:00
11:55 PM,24.8,23.0,93,30.00,10.0,NNW,3.5,-,N/A,,Clear,340,2012-12-04 05:55:00